CDT,Max TemperatureF,Mean TemperatureF,Min TemperatureF,Max Dew PointF,MeanDew PointF,Min DewpointF,Max Humidity, Mean Humidity, Min Humidity, Max Sea Level PressureIn, Mean Sea Level PressureIn, Min Sea Level PressureIn, Max VisibilityMiles, Mean VisibilityMiles, Min VisibilityMiles, Max Wind SpeedMPH, Mean Wind SpeedMPH, Max Gust SpeedMPH,PrecipitationIn, CloudCover, Events, WindDirDegrees
2012-9-1,84,68,53,63,56,52,94,67,45,30.13,30.05,29.93,10,10,10,21,8,28,0.00,0,,122
2012-9-2,89,76,64,68,60,54,83,63,43,29.93,29.84,29.78,10,10,10,25,12,32,0.00,0,,174
2012-9-3,86,70,55,63,55,50,100,65,29,29.94,29.90,29.83,10,10,10,14,3,16,0.00,0,Thunderstorm,121
2012-9-4,84,68,53,57,55,50,94,63,30,29.87,29.83,29.77,10,10,7,12,5,,0.00,0,Thunderstorm,307
2012-9-5,73,64,55,57,51,45,88,63,36,29.95,29.91,29.80,10,10,2,16,6,22,0.25,2,Rain-Thunderstorm,284
2012-9-6,78,64,51,57,51,46,88,67,36,29.99,29.93,29.89,10,10,10,15,4,21,0.00,2,Rain-Thunderstorm,299
2012-9-7,68,59,50,52,48,45,100,76,43,30.12,30.08,30.00,10,10,10,18,7,25,0.00,2,,305
2012-9-8,69,58,46,50,45,41,87,62,35,30.16,30.04,29.95,10,10,10,24,9,36,0.00,0,,293
2012-9-9,73,58,42,48,44,41,100,66,31,30.26,30.15,30.01,10,10,10,10,4,,0.00,0,,185
2012-9-10,89,68,48,52,48,45,87,51,24,30.01,29.78,29.65,10,10,10,24,11,33,0.00,0,,150
2012-9-11,84,70,57,54,48,36,77,49,27,29.98,29.71,29.62,10,10,10,17,9,24,0.00,0,,108
2012-9-12,71,61,51,46,37,27,72,45,19,30.27,30.16,30.01,10,10,7,18,5,24,0.00,1,Rain,276
2012-9-13,75,57,39,39,34,28,87,44,19,30.35,30.30,30.25,10,10,10,12,4,18,0.00,0,,264
2012-9-14,75,57,39,41,37,36,87,50,24,30.35,30.29,30.21,10,10,10,13,6,10,0.00,0,,101
2012-9-15,89,63,37,48,41,34,87,50,19,30.21,30.01,29.86,10,10,10,15,6,25,0.00,0,,156
2012-9-16,73,62,50,48,44,39,82,58,33,30.09,29.98,29.88,10,10,10,20,9,29,0.00,1,,314
2012-9-17,57,48,39,46,40,36,93,75,48,30.13,30.09,30.06,10,10,7,22,6,28,0.06,2,Rain,307
2012-9-18,59,47,35,43,36,34,100,67,39,30.10,29.98,29.76,10,10,10,14,4,20,0.00,1,,180
2012-9-19,66,57,48,45,38,34,82,49,32,29.92,29.78,29.63,10,10,10,30,11,38,0.00,1,Rain,276
2012-9-20,64,54,44,39,35,30,71,48,28,30.00,29.94,29.89,10,10,7,16,8,26,0.00,1,Rain,284
2012-9-21,64,52,39,45,36,19,87,55,29,30.09,29.92,29.86,10,10,10,26,7,37,0.00,3,,332
2012-9-22,53,44,35,34,30,25,81,60,38,30.32,30.26,30.09,10,10,5,16,11,25,0.00,0,,313
2012-9-23,60,45,30,34,28,25,93,59,27,30.36,30.28,30.15,10,9,1,9,3,,0.00,0,,257
2012-9-24,80,58,37,45,34,27,70,44,21,30.14,29.90,29.74,10,10,5,14,7,21,0.00,0,,246
2012-9-25,64,48,33,39,34,30,87,61,34,30.05,29.95,29.88,10,10,10,13,4,18,0.00,0,,324
2012-9-26,62,46,30,39,32,27,100,63,30,30.22,30.15,30.05,10,10,10,7,1,,0.00,0,,14
2012-9-27,71,52,32,36,30,27,81,49,19,30.26,30.20,30.14,10,10,2,10,5,,0.00,0,,138
2012-9-28,82,60,39,39,34,28,70,41,20,30.20,30.14,30.09,10,10,7,9,6,,0.00,0,,168
2012-9-29,84,62,39,37,35,30,70,39,17,30.14,30.08,30.00,10,10,7,9,4,,0.00,0,,148
2012-9-30,84,63,42,48,40,34,76,47,20,30.02,29.93,29.86,10,10,10,12,4,,0.00,0,,192